Location: *
(40.4000°N, 15.1200°E)
Time: 05:46:48
(UTC+00:00)

ATLAS 5 CENTAUR R/B - Pass Details

Date: 09 April 2020
Orbit: 241 x 12936 km, 20.2° (Epoch: 05 June)

Event Time Altitude Azimuth Distance (km) Brightness Sun altitude
Rises 18:50:44 0° 215° (SW) 3,043 4.7 -14.9°
Reaches altitude 10° 18:53:04 10° 195° (SSW) 2,712 4.2 -15.3°
Maximum altitude 18:57:55 19° 150° (SSE) 3,292 4.2 -16.2°
Enters shadow 19:00:34 18° 134° (SE) 4,044 4.6 -16.6°
